Home   Weather   Rehovot   Past weeks

Flag for Israel Past Weather in Rehovot, Israel — Yesterday and Last 2 Weeks

Now
63 °F

Passing clouds.


Feels Like: 63 °F
Forecast: 59 / 69 °F
Wind: 2 mph from North

Location: Ben Gurion International Airport

Current Time: Dec 6, 2016 at 10:26:07 am

Latest Report: Dec 6, 2016 at 9:50 am


Visibility: N/A

Pressure: 30.21 "Hg

Humidity: 59%

Dew Point: 48 °F

Location of RehovotLocation

Past Weather in Rehovot — Graph

°F

Rehovot Temperature Yesterday

Maximum temperature yesterday: 68 °F (at 10:50 am)
Minimum temperature yesterday: 48 °F (at 6:50 am)
Average temperature yesterday: 59 °F

High & Low Weather Summary for the Past Weeks

 TemperatureHumidityPressure
High82 °F (Nov 21, 12:20 pm)94% (Dec 2, 12:20 am)30.30 "Hg (Dec 2, 12:20 am)
Low39 °F (Nov 26, 4:20 am)4% (Nov 24, 2:20 pm)29.74 "Hg (Dec 1, 1:50 pm)
Average63 °F40%30.04 "Hg
* Reported Nov 21 9:20 am — Dec 6 9:20 am, Rehovot, Weather by CustomWeather, © 2016

Note: Actual official high and low records may vary slightly from our data, if they occured in-between our weather recording intervals... More about our weather records

Advertising

Rehovot Weather History for the Previous 24 Hours

Scroll right to see more
 ConditionsComfort  
Time TempWeatherWind HumidityBarometerVisibility
9:20 am
Tue, Dec 6
61 °FPassing clouds.2 mph68%30.21 "HgN/A
8:50 am61 °FPassing clouds.2 mph68%30.21 "HgN/A
8:20 am55 °FSunny.2 mph82%30.21 "Hg10 mi
7:50 am54 °FSunny.2 mph88%30.21 "Hg10 mi
7:20 am52 °FSunny.3 mph88%30.21 "Hg10 mi
6:50 am50 °FSunny.5 mph94%30.21 "Hg10 mi
6:20 am50 °FClear.3 mph94%30.18 "Hg10 mi
5:50 am50 °FClear.1 mph94%30.18 "Hg10 mi
5:20 am50 °FClear.1 mph94%30.18 "Hg10 mi
4:50 am50 °FClear.1 mph94%30.18 "Hg10 mi
4:20 am52 °FClear.2 mph88%30.18 "Hg10 mi
3:50 am52 °FClear.1 mph88%30.18 "Hg10 mi
3:20 am52 °FClear.3 mph88%30.18 "Hg10 mi
2:50 am52 °FClear.2 mph94%30.18 "Hg10 mi
2:20 am52 °FClear.2 mph94%30.18 "Hg10 mi
1:50 am54 °FClear.3 mph88%30.18 "Hg10 mi
1:20 am55 °FClear.3 mph82%30.18 "Hg10 mi
12:50 am54 °FClear.1 mph88%30.18 "Hg10 mi
12:20 am55 °FClear.1 mph88%30.18 "Hg10 mi
11:50 pm
Mon, Dec 5
55 °FClear.2 mph88%30.18 "Hg10 mi
11:20 pm55 °FClear.2 mph88%30.18 "Hg10 mi
10:50 pm55 °FClear.3 mph88%30.18 "Hg10 mi
10:20 pm55 °FClear.3 mph88%30.18 "Hg10 mi
9:50 pm59 °FClear.5 mph77%30.18 "Hg10 mi
9:20 pm57 °FClear.3 mph82%30.18 "Hg10 mi
8:50 pm59 °FPassing clouds.3 mph77%30.18 "HgN/A
8:20 pm59 °FPassing clouds.5 mph77%30.18 "HgN/A
7:50 pm59 °FClear.2 mph77%30.18 "Hg10 mi
7:20 pm61 °FClear.1 mph72%30.18 "Hg10 mi
6:50 pm61 °FClear.5 mph72%30.18 "Hg10 mi
6:20 pm63 °FClear.2 mph64%30.18 "Hg10 mi
5:50 pm64 °FClear.2 mph60%30.15 "Hg10 mi
5:20 pm64 °FClear.2 mph60%30.15 "Hg10 mi
4:50 pm66 °FClear.5 mph56%30.15 "Hg10 mi
4:20 pm66 °FSunny.5 mph52%30.15 "Hg10 mi
3:50 pm66 °FSunny.5 mph52%30.15 "Hg10 mi
3:20 pm68 °FPassing clouds.6 mph53%30.12 "HgN/A
2:50 pm68 °FPassing clouds.6 mph46%30.12 "HgN/A
2:20 pm68 °FSunny.6 mph60%30.12 "Hg10 mi
1:50 pm68 °FSunny.8 mph56%30.12 "Hg10 mi
1:20 pm66 °FSunny.8 mph64%30.12 "Hg10 mi
12:50 pm66 °FSunny.9 mph64%30.12 "Hg10 mi
12:20 pm68 °FSunny.9 mph56%30.12 "Hg10 mi
11:50 am68 °FSunny.3 mph49%30.12 "Hg10 mi
11:20 am68 °FSunny.3 mph46%30.12 "Hg10 mi
10:50 am68 °FSunny.2 mph49%30.15 "Hg10 mi
10:20 am66 °FSunny.2 mph49%30.15 "Hg10 mi
Weather by CustomWeather, © 2016

See weather overviewHow to use our weather pages